Location: Bay Shore Mobile Home Park
(38.5762°N, 75.0841°W)
Time: 09:23:21
(UTC+00:00)

Cosmos 44 Rocket - Pass Details

Date: 15 November 2025
Orbit: 637 x 741 km, 65.1° (Epoch: 05 December)

Event Time Altitude Azimuth Distance (km) Brightness Sun altitude
Rises 22:51:48 0° 206° (SSW) 2,959 7.2 -12.8°
Reaches altitude 10° 22:54:03 10° 205° (SSW) 2,065 6.3 -13.3°
Maximum altitude 22:58:44 81° 119° (ESE) 686 3.2 -14.1°
Enters shadow 23:02:59 14° 33° (NNE) 1,903 5.1 -15.0°
